RYR56BR EHEH-LPPT

Flight info

Callsign RYR56BR
Flight time 2h 42m
Altitude 35000
Route WOODY N872 CIV DCT KOVIN DCT NIDUV DCT KIHVI DCT PON DCT DITAL DCT GODIX DCT DIDAK DCT KURIS DCT TERPO DCT ERIGA DCT FUJTI DCT ATLEN DCT ABUPI DCT XAMAX
Aircraft B738/M-SDE3FGILRWY/SB1

Departure

Time 2026-05-07 10:54
Airport Eindhoven Airport (EHEH)

Arrival

Time 2026-05-07 13:36
Airport Lisbon Humberto Delgado Airport (LPPT)
Time Latitude Longitude Altitude Speed Heading
2026-05-07 10:23 51.45822 5.39014 83 ft 0 kts 123°
2026-05-07 10:41 51.45822 5.39013 83 ft 1 kts 124°
2026-05-07 10:41 51.45831 5.38993 83 ft 2 kts 123°
2026-05-07 10:42 51.45839 5.38973 83 ft 2 kts 124°
2026-05-07 10:42 51.45845 5.38959 83 ft 0 kts 123°
2026-05-07 10:42 51.45851 5.38939 83 ft 2 kts 98°
2026-05-07 10:42 51.45851 5.38916 83 ft 2 kts 76°
2026-05-07 10:43 51.45845 5.38894 83 ft 2 kts 50°
2026-05-07 10:43 51.45838 5.38884 83 ft 1 kts 35°
2026-05-07 10:43 51.45834 5.38878 83 ft 0 kts 34°
2026-05-07 10:47 51.45834 5.38879 83 ft 0 kts 34°
2026-05-07 10:47 51.45847 5.38893 83 ft 7 kts 34°
2026-05-07 10:48 51.45907 5.38959 83 ft 10 kts 34°
2026-05-07 10:48 51.45952 5.39001 83 ft 4 kts
2026-05-07 10:48 51.45972 5.38977 83 ft 3 kts 311°
2026-05-07 10:48 51.45988 5.38945 83 ft 4 kts 304°
2026-05-07 10:49 51.46003 5.38909 83 ft 3 kts 303°
2026-05-07 10:49 51.46017 5.38875 83 ft 3 kts 303°
2026-05-07 10:49 51.46029 5.38846 83 ft 3 kts 304°
2026-05-07 10:49 51.46035 5.38834 83 ft 0 kts 304°
2026-05-07 10:52 51.46035 5.38833 83 ft 0 kts 304°
2026-05-07 10:52 51.46051 5.38797 83 ft 8 kts 304°
2026-05-07 10:52 51.46091 5.38705 83 ft 9 kts 302°
2026-05-07 10:53 51.46082 5.38653 83 ft 5 kts 218°
2026-05-07 10:53 51.46013 5.38572 83 ft 42 kts 216°
2026-05-07 10:53 51.45572 5.38082 83 ft 109 kts 215°
2026-05-07 10:53 51.44797 5.37206 84 ft 163 kts 213°
2026-05-07 10:54 51.43831 5.36091 622 ft 168 kts 217°
2026-05-07 10:54 51.42938 5.34922 1158 ft 175 kts 220°
2026-05-07 10:54 51.41995 5.33596 1611 ft 184 kts 224°
2026-05-07 10:54 51.41092 5.32155 2222 ft 184 kts 227°
2026-05-07 10:55 51.40280 5.30574 2752 ft 187 kts 242°
2026-05-07 10:55 51.39972 5.28563 3235 ft 189 kts 276°
2026-05-07 10:55 51.40358 5.26599 3761 ft 190 kts 302°
2026-05-07 10:55 51.41237 5.24906 3963 ft 212 kts 321°
2026-05-07 10:56 51.42564 5.23727 4449 ft 221 kts 341°
2026-05-07 10:56 51.44008 5.22935 5075 ft 226 kts 343°
2026-05-07 10:56 51.45533 5.22108 5580 ft 237 kts 342°
2026-05-07 10:56 51.47076 5.21222 6364 ft 235 kts 341°
2026-05-07 10:57 51.48607 5.20274 7021 ft 239 kts 336°
2026-05-07 10:57 51.49974 5.18786 7648 ft 244 kts 313°
2026-05-07 10:57 51.50833 5.16403 8104 ft 257 kts 289°
2026-05-07 10:57 51.51310 5.13583 8493 ft 272 kts 285°
2026-05-07 10:58 51.51784 5.10575 8969 ft 283 kts 285°
2026-05-07 10:58 51.52290 5.07511 9684 ft 285 kts 285°
2026-05-07 10:58 51.52811 5.04440 10329 ft 288 kts 285°
2026-05-07 10:58 51.53345 5.01297 10734 ft 301 kts 285°
2026-05-07 10:59 51.53902 4.98019 11419 ft 304 kts 285°
2026-05-07 10:59 51.54453 4.94767 12115 ft 306 kts 285°
2026-05-07 10:59 51.55009 4.91473 12810 ft 309 kts 285°
2026-05-07 10:59 51.55563 4.88158 13500 ft 311 kts 284°
2026-05-07 11:00 51.55897 4.84729 14176 ft 315 kts 272°
2026-05-07 11:00 51.55671 4.81245 14867 ft 318 kts 259°
2026-05-07 11:00 51.55176 4.77755 15566 ft 320 kts 257°
2026-05-07 11:00 51.54638 4.74320 16236 ft 323 kts 257°
2026-05-07 11:01 51.54106 4.70814 16866 ft 327 kts 257°
2026-05-07 11:01 51.53592 4.67248 17527 ft 330 kts 258°
2026-05-07 11:01 51.53093 4.63660 18170 ft 333 kts 258°
2026-05-07 11:01 51.52594 4.60023 18782 ft 335 kts 258°
2026-05-07 11:02 51.52091 4.56344 19380 ft 338 kts 258°
2026-05-07 11:02 51.51528 4.52718 19987 ft 341 kts 253°
2026-05-07 11:02 51.50666 4.49191 20532 ft 344 kts 243°
2026-05-07 11:02 51.49342 4.45962 21079 ft 347 kts 231°
2026-05-07 11:03 51.47662 4.43189 21629 ft 351 kts 223°
2026-05-07 11:03 51.45743 4.40761 22166 ft 354 kts 216°
2026-05-07 11:03 51.43634 4.38729 22673 ft 357 kts 209°
2026-05-07 11:03 51.41417 4.36970 23199 ft 359 kts 206°
2026-05-07 11:04 51.39147 4.35301 23716 ft 362 kts 206°
2026-05-07 11:04 51.36842 4.33632 24201 ft 364 kts 205°
2026-05-07 11:04 51.34510 4.31930 24707 ft 366 kts 205°
2026-05-07 11:04 51.32223 4.30241 25172 ft 369 kts 205°
2026-05-07 11:05 51.29878 4.28491 25663 ft 370 kts 206°
2026-05-07 11:05 51.27557 4.26745 26094 ft 373 kts 206°
2026-05-07 11:05 51.25196 4.24962 26519 ft 375 kts 206°
2026-05-07 11:05 51.22855 4.23192 26948 ft 377 kts 206°
2026-05-07 11:06 51.20486 4.21400 27350 ft 380 kts 206°
2026-05-07 11:06 51.18097 4.19593 27765 ft 382 kts 206°
2026-05-07 11:06 51.15678 4.17834 28107 ft 385 kts 203°
2026-05-07 11:06 51.13169 4.16293 28514 ft 387 kts 200°
2026-05-07 11:07 51.10628 4.14896 28890 ft 389 kts 199°
2026-05-07 11:07 51.08067 4.13547 29226 ft 392 kts 199°
2026-05-07 11:07 51.05465 4.12184 29627 ft 393 kts 199°
2026-05-07 11:07 51.02869 4.10815 29978 ft 395 kts 199°
2026-05-07 11:08 51.00285 4.09437 30339 ft 396 kts 200°
2026-05-07 11:08 50.97646 4.08021 30698 ft 398 kts 200°
2026-05-07 11:08 50.95050 4.06619 30942 ft 401 kts 200°
2026-05-07 11:08 50.92406 4.05187 31303 ft 402 kts 200°
2026-05-07 11:09 50.89737 4.03738 31592 ft 404 kts 200°
2026-05-07 11:09 50.87076 4.02280 31857 ft 406 kts 201°
2026-05-07 11:09 50.84423 4.00696 32097 ft 409 kts 202°
2026-05-07 11:09 50.81801 3.99027 32388 ft 411 kts 203°
2026-05-07 11:10 50.79167 3.97309 32633 ft 413 kts 204°
2026-05-07 11:10 50.76508 3.95565 32908 ft 415 kts 204°
2026-05-07 11:10 50.73825 3.93811 33219 ft 415 kts 204°
2026-05-07 11:10 50.71169 3.92087 33468 ft 417 kts 204°
2026-05-07 11:11 50.68473 3.90347 33710 ft 420 kts 204°
2026-05-07 11:11 50.65776 3.88617 33978 ft 420 kts 203°
2026-05-07 11:11 50.63055 3.86879 34221 ft 422 kts 203°
2026-05-07 11:11 50.60326 3.85147 34452 ft 424 kts 203°
2026-05-07 11:12 50.57549 3.83389 34685 ft 427 kts 203°
2026-05-07 11:12 50.54826 3.81627 34897 ft 428 kts 204°
2026-05-07 11:12 50.52068 3.79771 35032 ft 430 kts 205°
2026-05-07 11:12 50.49309 3.77881 35045 ft 430 kts 205°
2026-05-07 11:13 50.43886 3.74147 35047 ft 426 kts 205°
2026-05-07 11:13 50.38454 3.70427 35065 ft 427 kts 205°
2026-05-07 11:14 50.33011 3.66724 35049 ft 426 kts 205°
2026-05-07 11:14 50.27570 3.63041 35040 ft 426 kts 205°
2026-05-07 11:15 50.22168 3.59398 35052 ft 427 kts 205°
2026-05-07 11:15 50.16743 3.55749 35063 ft 425 kts 205°
2026-05-07 11:16 50.11299 3.52098 35052 ft 426 kts 205°
2026-05-07 11:16 50.05854 3.48454 35045 ft 425 kts 205°
2026-05-07 11:17 50.00438 3.44838 35041 ft 424 kts 205°
2026-05-07 11:17 49.95048 3.41247 35049 ft 425 kts 205°
2026-05-07 11:18 49.89620 3.37641 35047 ft 423 kts 205°
2026-05-07 11:18 49.84157 3.34019 35042 ft 426 kts 204°
2026-05-07 11:19 49.78739 3.30436 35048 ft 425 kts 204°
2026-05-07 11:19 49.73317 3.26861 35040 ft 424 kts 204°
2026-05-07 11:20 49.67869 3.23278 35014 ft 426 kts 204°
2026-05-07 11:20 49.62445 3.19718 35036 ft 426 kts 204°
2026-05-07 11:21 49.56977 3.16139 35055 ft 426 kts 204°
2026-05-07 11:21 49.51659 3.12316 35035 ft 423 kts 212°
2026-05-07 11:22 49.49296 3.09680 35033 ft 423 kts 223°
2026-05-07 11:22 49.47290 3.06403 35031 ft 421 kts 233°
2026-05-07 11:22 49.44081 2.98878 35037 ft 422 kts 240°
2026-05-07 11:23 49.41196 2.91096 35043 ft 421 kts 241°
2026-05-07 11:23 49.38339 2.83271 35037 ft 420 kts 241°
2026-05-07 11:24 49.35468 2.75486 35043 ft 420 kts 241°
2026-05-07 11:24 49.32619 2.67691 35055 ft 420 kts 242°
2026-05-07 11:25 49.29851 2.59776 35053 ft 421 kts 243°
2026-05-07 11:25 49.27108 2.51906 35065 ft 420 kts 243°
2026-05-07 11:26 49.24348 2.44045 35063 ft 419 kts 243°
2026-05-07 11:26 49.21600 2.36275 35065 ft 419 kts 243°
2026-05-07 11:27 49.18812 2.28455 35066 ft 420 kts 241°
2026-05-07 11:27 49.15958 2.20691 35069 ft 419 kts 241°
2026-05-07 11:28 49.13095 2.12988 35056 ft 420 kts 241°
2026-05-07 11:28 49.10203 2.05214 35044 ft 420 kts 241°
2026-05-07 11:29 49.07526 1.97274 35037 ft 420 kts 245°
2026-05-07 11:29 49.05124 1.89160 35053 ft 419 kts 246°
2026-05-07 11:30 49.02756 1.81080 35049 ft 418 kts 246°
2026-05-07 11:30 49.00358 1.73024 35035 ft 419 kts 246°
2026-05-07 11:31 48.97929 1.64969 35033 ft 419 kts 246°
2026-05-07 11:31 48.95497 1.56964 35032 ft 418 kts 245°
2026-05-07 11:32 48.91817 1.44921 35029 ft 418 kts 246°
2026-05-07 11:33 48.89365 1.36917 35035 ft 418 kts 246°
2026-05-07 11:33 48.86898 1.28886 35051 ft 418 kts 245°
2026-05-07 11:34 48.84425 1.20870 35050 ft 419 kts 245°
2026-05-07 11:34 48.81949 1.12882 35030 ft 418 kts 245°
2026-05-07 11:35 48.79464 1.04903 35029 ft 419 kts 245°
2026-05-07 11:35 48.76980 0.96949 35029 ft 418 kts 245°
2026-05-07 11:36 48.74489 0.89011 35028 ft 418 kts 244°
2026-05-07 11:36 48.71616 0.81325 35028 ft 418 kts 239°
2026-05-07 11:37 48.68550 0.73929 35028 ft 418 kts 238°
2026-05-07 11:37 48.65454 0.66498 35027 ft 418 kts 238°
2026-05-07 11:38 48.62380 0.59048 35021 ft 419 kts 239°
2026-05-07 11:38 48.59304 0.51557 35021 ft 419 kts 239°
2026-05-07 11:39 48.56249 0.44106 35018 ft 418 kts 239°
2026-05-07 11:39 48.53183 0.36641 35019 ft 417 kts 239°
2026-05-07 11:40 48.50122 0.29200 35018 ft 417 kts 238°
2026-05-07 11:40 48.47059 0.21781 35016 ft 418 kts 238°
2026-05-07 11:41 48.43992 0.14373 35017 ft 417 kts 238°
2026-05-07 11:41 48.40918 0.06968 35016 ft 418 kts 238°
2026-05-07 11:42 48.37859 -0.00383 35017 ft 418 kts 238°
2026-05-07 11:42 48.34689 -0.07756 35016 ft 418 kts 235°
2026-05-07 11:43 48.31232 -0.14783 35016 ft 418 kts 233°
2026-05-07 11:43 48.27728 -0.21665 35015 ft 417 kts 233°
2026-05-07 11:44 48.24207 -0.28590 35014 ft 418 kts 233°
2026-05-07 11:44 48.20667 -0.35481 35016 ft 417 kts 233°
2026-05-07 11:45 48.17121 -0.42371 35017 ft 417 kts 233°
2026-05-07 11:45 48.13588 -0.49241 35026 ft 417 kts 233°
2026-05-07 11:46 48.10069 -0.56080 35027 ft 417 kts 233°
2026-05-07 11:46 48.06521 -0.62970 35045 ft 417 kts 233°
2026-05-07 11:47 48.02980 -0.69830 35048 ft 416 kts 232°
2026-05-07 11:47 47.99441 -0.76666 35049 ft 417 kts 232°
2026-05-07 11:48 47.95895 -0.83496 35049 ft 415 kts 232°
2026-05-07 11:48 47.92359 -0.90291 35047 ft 416 kts 232°
2026-05-07 11:49 47.88808 -0.97094 35033 ft 416 kts 232°
2026-05-07 11:49 47.85238 -1.03914 35022 ft 415 kts 232°
2026-05-07 11:50 47.81713 -1.10641 35019 ft 416 kts 232°
2026-05-07 11:50 47.78141 -1.17440 35020 ft 416 kts 232°
2026-05-07 11:51 47.74583 -1.24196 35015 ft 416 kts 232°
2026-05-07 11:51 47.71022 -1.30939 35011 ft 416 kts 232°
2026-05-07 11:52 47.67445 -1.37694 35012 ft 416 kts 232°
2026-05-07 11:52 47.63876 -1.44417 35008 ft 416 kts 232°
2026-05-07 11:53 47.60310 -1.51120 35007 ft 414 kts 232°
2026-05-07 11:53 47.56599 -1.57627 35002 ft 413 kts 228°
2026-05-07 11:54 47.52738 -1.63890 35000 ft 415 kts 228°
2026-05-07 11:54 47.48833 -1.70191 35002 ft 415 kts 227°
2026-05-07 11:55 47.44948 -1.76498 34997 ft 414 kts 227°
2026-05-07 11:55 47.41078 -1.82804 35000 ft 415 kts 227°
2026-05-07 11:56 47.37173 -1.89101 34999 ft 414 kts 226°
2026-05-07 11:56 47.32869 -1.94643 35012 ft 414 kts 216°
2026-05-07 11:57 47.28024 -1.99262 35019 ft 413 kts 212°
2026-05-07 11:57 47.23123 -2.03570 35013 ft 413 kts 211°
2026-05-07 11:58 47.18164 -2.07911 35013 ft 413 kts 211°
2026-05-07 11:58 47.13248 -2.12245 35002 ft 414 kts 212°
2026-05-07 11:59 47.08353 -2.16577 34991 ft 413 kts 212°
2026-05-07 11:59 47.03431 -2.20934 34991 ft 413 kts 212°
2026-05-07 12:00 46.98521 -2.25272 34982 ft 412 kts 212°
2026-05-07 12:00 46.93613 -2.29601 34994 ft 412 kts 212°
2026-05-07 12:01 46.88723 -2.33905 34994 ft 413 kts 212°
2026-05-07 12:01 46.83794 -2.38235 34984 ft 413 kts 212°
2026-05-07 12:02 46.78901 -2.42530 34988 ft 412 kts 212°
2026-05-07 12:02 46.73991 -2.46832 34957 ft 411 kts 212°
2026-05-07 12:03 46.69128 -2.51084 35012 ft 411 kts 212°
2026-05-07 12:03 46.64227 -2.55361 34992 ft 411 kts 212°
2026-05-07 12:04 46.59342 -2.59613 34986 ft 410 kts 212°
2026-05-07 12:04 46.54469 -2.63847 35015 ft 409 kts 212°
2026-05-07 12:05 46.49602 -2.68067 34979 ft 408 kts 211°
2026-05-07 12:05 46.44738 -2.72274 35007 ft 410 kts 211°
2026-05-07 12:06 46.39841 -2.76501 34983 ft 408 kts 211°
2026-05-07 12:06 46.34957 -2.80706 35012 ft 410 kts 211°
2026-05-07 12:07 46.30083 -2.84895 34974 ft 409 kts 211°
2026-05-07 12:07 46.25320 -2.89425 35004 ft 411 kts 217°
2026-05-07 12:08 46.20922 -2.94586 34975 ft 410 kts 220°
2026-05-07 12:08 46.16600 -2.99950 34948 ft 411 kts 220°
2026-05-07 12:09 46.12285 -3.05294 34973 ft 411 kts 220°
2026-05-07 12:09 46.07916 -3.10650 34969 ft 412 kts 220°
2026-05-07 12:10 46.03552 -3.15962 34985 ft 412 kts 220°
2026-05-07 12:10 45.99195 -3.21242 34960 ft 409 kts 219°
2026-05-07 12:11 45.94871 -3.26467 34962 ft 409 kts 219°
2026-05-07 12:11 45.90508 -3.31728 34972 ft 412 kts 219°
2026-05-07 12:12 45.86129 -3.36994 34980 ft 410 kts 219°
2026-05-07 12:12 45.81763 -3.42222 34965 ft 409 kts 219°
2026-05-07 12:13 45.77395 -3.47443 34978 ft 411 kts 219°
2026-05-07 12:13 45.73027 -3.52658 34986 ft 410 kts 219°
2026-05-07 12:14 45.68650 -3.57876 34991 ft 411 kts 219°
2026-05-07 12:14 45.64290 -3.63063 34962 ft 406 kts 219°
2026-05-07 12:15 45.60007 -3.68149 35007 ft 410 kts 219°
2026-05-07 12:15 45.55600 -3.73370 34988 ft 410 kts 219°
2026-05-07 12:16 45.51239 -3.78527 34982 ft 409 kts 219°
2026-05-07 12:16 45.46846 -3.83711 34966 ft 411 kts 219°
2026-05-07 12:17 45.42470 -3.88864 34974 ft 409 kts 219°
2026-05-07 12:17 45.38101 -3.93998 34963 ft 410 kts 219°
2026-05-07 12:18 45.33733 -3.99119 34976 ft 410 kts 219°
2026-05-07 12:18 45.29318 -4.04286 34939 ft 408 kts 219°
2026-05-07 12:19 45.24966 -4.09369 34998 ft 410 kts 219°
2026-05-07 12:19 45.20585 -4.14478 34957 ft 407 kts 219°
2026-05-07 12:20 45.16178 -4.19605 35018 ft 412 kts 219°
2026-05-07 12:20 45.11763 -4.24728 34936 ft 410 kts 219°
2026-05-07 12:21 45.07350 -4.29840 35046 ft 413 kts 219°
2026-05-07 12:21 45.02924 -4.34955 34919 ft 410 kts 219°
2026-05-07 12:22 44.98519 -4.40036 34939 ft 412 kts 219°
2026-05-07 12:22 44.94065 -4.45162 34958 ft 412 kts 219°
2026-05-07 12:23 44.89642 -4.50242 34931 ft 410 kts 219°
2026-05-07 12:23 44.85202 -4.55332 34947 ft 413 kts 219°
2026-05-07 12:24 44.80764 -4.60409 34949 ft 413 kts 219°
2026-05-07 12:24 44.76314 -4.65489 34953 ft 413 kts 218°
2026-05-07 12:25 44.71858 -4.70566 34949 ft 413 kts 218°
2026-05-07 12:25 44.67400 -4.75634 34911 ft 413 kts 218°
2026-05-07 12:26 44.62946 -4.80687 34937 ft 412 kts 218°
2026-05-07 12:26 44.58473 -4.85743 34946 ft 415 kts 218°
2026-05-07 12:27 44.54010 -4.90780 34933 ft 414 kts 219°
2026-05-07 12:27 44.49495 -4.95782 34907 ft 412 kts 215°
2026-05-07 12:28 44.44701 -5.00138 34948 ft 415 kts 211°
2026-05-07 12:28 44.39762 -5.04313 34929 ft 415 kts 211°
2026-05-07 12:29 44.34840 -5.08500 34913 ft 415 kts 212°
2026-05-07 12:29 44.29933 -5.12721 34925 ft 415 kts 212°
2026-05-07 12:30 44.25047 -5.16947 34907 ft 415 kts 212°
2026-05-07 12:30 44.20172 -5.21169 34908 ft 415 kts 212°
2026-05-07 12:31 44.15290 -5.25392 34916 ft 414 kts 213°
2026-05-07 12:31 44.10384 -5.29630 34878 ft 419 kts 213°
2026-05-07 12:32 44.05444 -5.33889 34904 ft 419 kts 213°
2026-05-07 12:32 44.00483 -5.38154 34867 ft 418 kts 213°
2026-05-07 12:33 43.93079 -5.44507 34877 ft 418 kts 213°
2026-05-07 12:33 43.88143 -5.48733 34893 ft 417 kts 213°
2026-05-07 12:34 43.83207 -5.52952 34888 ft 418 kts 213°
2026-05-07 12:34 43.78244 -5.57185 34896 ft 423 kts 213°
2026-05-07 12:35 43.73265 -5.61423 34882 ft 423 kts 213°
2026-05-07 12:35 43.68272 -5.65662 34888 ft 421 kts 213°
2026-05-07 12:36 43.63263 -5.69908 34884 ft 423 kts 213°
2026-05-07 12:36 43.58228 -5.74167 34882 ft 427 kts 213°
2026-05-07 12:37 43.53197 -5.78416 34901 ft 425 kts 213°
2026-05-07 12:37 43.48143 -5.82672 34906 ft 428 kts 213°
2026-05-07 12:38 43.43092 -5.86920 34905 ft 425 kts 213°
2026-05-07 12:38 43.38030 -5.91168 34901 ft 426 kts 213°
2026-05-07 12:39 43.32996 -5.95386 34905 ft 427 kts 213°
2026-05-07 12:39 43.27911 -5.99636 34887 ft 428 kts 213°
2026-05-07 12:40 43.22818 -6.03886 34894 ft 430 kts 213°
2026-05-07 12:40 43.17695 -6.08153 34905 ft 429 kts 213°
2026-05-07 12:41 43.12622 -6.12366 34916 ft 428 kts 213°
2026-05-07 12:41 43.07531 -6.16587 34889 ft 429 kts 213°
2026-05-07 12:42 43.02385 -6.20847 34900 ft 429 kts 214°
2026-05-07 12:42 42.97272 -6.25070 34922 ft 429 kts 214°
2026-05-07 12:43 42.92155 -6.29287 34891 ft 432 kts 214°
2026-05-07 12:43 42.87013 -6.33517 34900 ft 431 kts 214°
2026-05-07 12:44 42.81816 -6.37785 34894 ft 431 kts 214°
2026-05-07 12:44 42.76691 -6.41985 34880 ft 431 kts 214°
2026-05-07 12:45 42.71569 -6.46174 34919 ft 431 kts 214°
2026-05-07 12:45 42.66433 -6.50366 34893 ft 430 kts 214°
2026-05-07 12:46 42.61304 -6.54544 34891 ft 431 kts 214°
2026-05-07 12:46 42.56153 -6.58730 34905 ft 431 kts 215°
2026-05-07 12:47 42.50987 -6.62925 34882 ft 433 kts 215°
2026-05-07 12:47 42.45797 -6.67126 34884 ft 434 kts 214°
2026-05-07 12:48 42.40615 -6.71318 34882 ft 434 kts 214°
2026-05-07 12:48 42.35460 -6.75475 34902 ft 433 kts 214°
2026-05-07 12:49 42.30263 -6.79661 34898 ft 434 kts 214°
2026-05-07 12:49 42.25082 -6.83821 34972 ft 435 kts 214°
2026-05-07 12:50 42.19869 -6.88002 34880 ft 435 kts 215°
2026-05-07 12:50 42.14708 -6.92130 34895 ft 435 kts 215°
2026-05-07 12:51 42.09495 -6.96295 34913 ft 436 kts 215°
2026-05-07 12:51 42.04266 -7.00471 34923 ft 436 kts 215°
2026-05-07 12:52 41.99073 -7.04602 34895 ft 435 kts 215°
2026-05-07 12:52 41.93862 -7.08743 34925 ft 435 kts 216°
2026-05-07 12:53 41.88665 -7.12864 34879 ft 435 kts 216°
2026-05-07 12:53 41.83451 -7.16990 34909 ft 435 kts 216°
2026-05-07 12:54 41.78257 -7.21089 34884 ft 433 kts 216°
2026-05-07 12:54 41.73059 -7.25178 34868 ft 432 kts 216°
2026-05-07 12:55 41.67883 -7.29217 34884 ft 432 kts 216°
2026-05-07 12:55 41.62691 -7.33247 34893 ft 433 kts 216°
2026-05-07 12:56 41.57488 -7.37275 34877 ft 430 kts 216°
2026-05-07 12:56 41.52340 -7.41257 34889 ft 430 kts 217°
2026-05-07 12:57 41.47181 -7.45230 34858 ft 427 kts 217°
2026-05-07 12:57 41.42014 -7.49216 34895 ft 429 kts 217°
2026-05-07 12:58 41.36900 -7.53149 34882 ft 426 kts 217°
2026-05-07 12:58 41.31768 -7.57092 34859 ft 426 kts 217°
2026-05-07 12:59 41.26611 -7.61053 34906 ft 429 kts 217°
2026-05-07 12:59 41.21481 -7.64974 34913 ft 424 kts 218°
2026-05-07 13:00 41.16370 -7.68875 34879 ft 425 kts 217°
2026-05-07 13:00 41.11249 -7.72782 34876 ft 425 kts 217°
2026-05-07 13:01 41.06166 -7.76647 34881 ft 422 kts 218°
2026-05-07 13:01 41.01058 -7.80528 34875 ft 424 kts 217°
2026-05-07 13:02 40.95956 -7.84402 34861 ft 425 kts 217°
2026-05-07 13:02 40.90837 -7.88270 34895 ft 421 kts 218°
2026-05-07 13:03 40.85717 -7.92135 34873 ft 422 kts 217°
2026-05-07 13:03 40.80624 -7.95982 34857 ft 422 kts 218°
2026-05-07 13:04 40.75579 -7.99785 34895 ft 420 kts 218°
2026-05-07 13:04 40.70462 -8.03628 34853 ft 423 kts 218°
2026-05-07 13:05 40.65373 -8.07435 34861 ft 419 kts 218°
2026-05-07 13:05 40.60324 -8.11213 34884 ft 422 kts 218°
2026-05-07 13:06 40.55461 -8.14853 34837 ft 419 kts 218°
2026-05-07 13:06 40.50430 -8.18602 34874 ft 418 kts 218°
2026-05-07 13:07 40.45383 -8.22359 34869 ft 418 kts 218°
2026-05-07 13:07 40.40366 -8.26093 34843 ft 411 kts 218°
2026-05-07 13:08 40.37880 -8.27935 34192 ft 414 kts 218°
2026-05-07 13:08 40.35355 -8.29816 33211 ft 421 kts 218°
2026-05-07 13:08 40.32806 -8.31716 32308 ft 426 kts 218°
2026-05-07 13:08 40.30229 -8.33629 31650 ft 424 kts 217°
2026-05-07 13:09 40.27689 -8.35504 31061 ft 422 kts 217°
2026-05-07 13:09 40.25129 -8.37391 30472 ft 422 kts 217°
2026-05-07 13:09 40.22570 -8.39281 29893 ft 427 kts 217°
2026-05-07 13:09 40.19970 -8.41202 29303 ft 433 kts 216°
2026-05-07 13:10 40.17320 -8.43158 28715 ft 434 kts 216°
2026-05-07 13:10 40.14706 -8.45082 28165 ft 435 kts 216°
2026-05-07 13:10 40.12076 -8.47016 27766 ft 434 kts 215°
2026-05-07 13:10 40.09437 -8.48954 27387 ft 438 kts 215°
2026-05-07 13:11 40.06775 -8.50874 27006 ft 445 kts 213°
2026-05-07 13:11 40.03905 -8.52550 26628 ft 449 kts 205°
2026-05-07 13:11 40.00891 -8.53626 26212 ft 455 kts 195°
2026-05-07 13:11 39.97707 -8.54057 25833 ft 461 kts 186°
2026-05-07 13:12 39.94510 -8.53939 25437 ft 465 kts 180°
2026-05-07 13:12 39.91289 -8.53547 25050 ft 466 kts 177°
2026-05-07 13:12 39.88037 -8.53057 24667 ft 465 kts 176°
2026-05-07 13:12 39.84843 -8.52577 24269 ft 461 kts 177°
2026-05-07 13:13 39.81646 -8.52109 23952 ft 457 kts 176°
2026-05-07 13:13 39.78495 -8.51759 23684 ft 455 kts 181°
2026-05-07 13:13 39.75375 -8.51931 23459 ft 446 kts 191°
2026-05-07 13:13 39.72319 -8.52770 23259 ft 447 kts 200°
2026-05-07 13:14 39.69454 -8.54226 22883 ft 440 kts 210°
2026-05-07 13:14 39.66867 -8.56218 22476 ft 429 kts 218°
2026-05-07 13:14 39.64459 -8.58511 22066 ft 424 kts 220°
2026-05-07 13:14 39.62138 -8.60809 21674 ft 422 kts 220°
2026-05-07 13:15 39.59792 -8.63066 21261 ft 421 kts 219°
2026-05-07 13:15 39.57392 -8.65265 20835 ft 417 kts 217°
2026-05-07 13:15 39.54993 -8.67365 20461 ft 414 kts 216°
2026-05-07 13:15 39.52603 -8.69381 20082 ft 413 kts 215°
2026-05-07 13:16 39.50178 -8.71370 19704 ft 411 kts 214°
2026-05-07 13:16 39.47752 -8.73323 19281 ft 407 kts 214°
2026-05-07 13:16 39.45342 -8.75238 18866 ft 405 kts 214°
2026-05-07 13:16 39.42959 -8.77121 18446 ft 402 kts 214°
2026-05-07 13:17 39.40677 -8.79132 18149 ft 397 kts 219°
2026-05-07 13:17 39.38597 -8.81442 17953 ft 395 kts 225°
2026-05-07 13:17 39.36680 -8.83984 17898 ft 393 kts 229°
2026-05-07 13:17 39.34869 -8.86609 17865 ft 394 kts 231°
2026-05-07 13:18 39.33093 -8.89274 17880 ft 392 kts 231°
2026-05-07 13:18 39.31303 -8.91972 17931 ft 393 kts 231°
2026-05-07 13:18 39.29538 -8.94618 17873 ft 393 kts 231°
2026-05-07 13:18 39.27739 -8.97292 17871 ft 393 kts 231°
2026-05-07 13:19 39.25946 -8.99939 17915 ft 394 kts 230°
2026-05-07 13:19 39.24145 -9.02584 17904 ft 394 kts 231°
2026-05-07 13:19 39.22334 -9.05234 17874 ft 393 kts 230°
2026-05-07 13:19 39.20535 -9.07862 17877 ft 394 kts 230°
2026-05-07 13:20 39.18714 -9.10519 17913 ft 391 kts 230°
2026-05-07 13:20 39.16920 -9.13133 17440 ft 388 kts 230°
2026-05-07 13:20 39.15147 -9.15715 16794 ft 387 kts 230°
2026-05-07 13:20 39.13374 -9.18294 16155 ft 384 kts 230°
2026-05-07 13:21 39.11604 -9.20866 15568 ft 381 kts 230°
2026-05-07 13:21 39.09858 -9.23404 15107 ft 380 kts 229°
2026-05-07 13:21 39.08109 -9.25943 14584 ft 379 kts 229°
2026-05-07 13:21 39.06376 -9.28458 14114 ft 377 kts 229°
2026-05-07 13:22 39.04659 -9.30948 13618 ft 374 kts 229°
2026-05-07 13:22 39.02951 -9.33422 13183 ft 370 kts 229°
2026-05-07 13:22 39.01231 -9.35909 12620 ft 371 kts 228°
2026-05-07 13:22 38.99529 -9.38372 12078 ft 366 kts 228°
2026-05-07 13:23 38.97862 -9.40783 11586 ft 362 kts 228°
2026-05-07 13:23 38.96205 -9.43178 11087 ft 357 kts 228°
2026-05-07 13:23 38.94569 -9.45539 10601 ft 352 kts 227°
2026-05-07 13:23 38.92965 -9.47852 10320 ft 340 kts 227°
2026-05-07 13:24 38.91443 -9.50049 10279 ft 322 kts 227°
2026-05-07 13:24 38.90005 -9.52111 10237 ft 306 kts 226°
2026-05-07 13:24 38.88441 -9.53949 10194 ft 289 kts 214°
2026-05-07 13:24 38.86680 -9.54943 10156 ft 276 kts 189°
2026-05-07 13:25 38.84773 -9.55079 10016 ft 276 kts 180°
2026-05-07 13:25 38.82818 -9.55011 9533 ft 281 kts 179°
2026-05-07 13:25 38.80871 -9.54963 8994 ft 286 kts 180°
2026-05-07 13:25 38.78873 -9.54970 8548 ft 286 kts 181°
2026-05-07 13:26 38.76895 -9.55009 8292 ft 280 kts 181°
2026-05-07 13:26 38.74962 -9.55055 8040 ft 274 kts 181°
2026-05-07 13:26 38.73075 -9.55101 7740 ft 270 kts 181°
2026-05-07 13:26 38.71219 -9.55145 7384 ft 269 kts 181°
2026-05-07 13:27 38.69352 -9.55185 7036 ft 268 kts 181°
2026-05-07 13:27 38.67485 -9.55211 6685 ft 266 kts 181°
2026-05-07 13:27 38.65667 -9.54909 6338 ft 265 kts 161°
2026-05-07 13:27 38.64142 -9.53642 5994 ft 265 kts 133°
2026-05-07 13:28 38.63170 -9.51663 5699 ft 262 kts 116°
2026-05-07 13:28 38.62435 -9.49534 5420 ft 258 kts 114°
2026-05-07 13:28 38.61740 -9.47441 5131 ft 255 kts 114°
2026-05-07 13:28 38.61053 -9.45376 4875 ft 252 kts 114°
2026-05-07 13:29 38.60369 -9.43331 4606 ft 249 kts 114°
2026-05-07 13:29 38.59685 -9.41302 4331 ft 247 kts 114°
2026-05-07 13:29 38.59010 -9.39318 4076 ft 244 kts 114°
2026-05-07 13:29 38.58345 -9.37381 4000 ft 233 kts 114°
2026-05-07 13:30 38.57697 -9.35515 3998 ft 226 kts 114°
2026-05-07 13:30 38.57055 -9.33672 4000 ft 228 kts 114°
2026-05-07 13:30 38.56661 -9.31747 3992 ft 227 kts 89°
2026-05-07 13:30 38.57066 -9.29809 4000 ft 228 kts 60°
2026-05-07 13:31 38.57916 -9.28163 3994 ft 216 kts 54°
2026-05-07 13:31 38.58760 -9.26649 3997 ft 200 kts 54°
2026-05-07 13:31 38.59547 -9.25231 4000 ft 195 kts 54°
2026-05-07 13:31 38.60355 -9.23839 3913 ft 197 kts 47°
2026-05-07 13:32 38.61424 -9.22770 3598 ft 197 kts 28°
2026-05-07 13:32 38.62640 -9.21972 3316 ft 194 kts 24°
2026-05-07 13:32 38.63855 -9.21253 3049 ft 191 kts 23°
2026-05-07 13:32 38.65070 -9.20571 2790 ft 188 kts 21°
2026-05-07 13:33 38.66257 -9.19926 2534 ft 186 kts 21°
2026-05-07 13:33 38.67444 -9.19286 2287 ft 185 kts 21°
2026-05-07 13:33 38.68641 -9.18643 2036 ft 183 kts 21°
2026-05-07 13:33 38.69797 -9.18019 1792 ft 178 kts 21°
2026-05-07 13:34 38.70905 -9.17430 1582 ft 163 kts 20°
2026-05-07 13:34 38.72872 -9.16381 1176 ft 148 kts 20°
2026-05-07 13:34 38.73844 -9.15867 969 ft 151 kts 20°
2026-05-07 13:35 38.74806 -9.15366 748 ft 148 kts 20°
2026-05-07 13:35 38.75779 -9.14852 559 ft 149 kts 21°
2026-05-07 13:35 38.76732 -9.14341 356 ft 146 kts 20°
2026-05-07 13:35 38.77556 -9.13902 355 ft 99 kts 23°
2026-05-07 13:36 38.78019 -9.13653 358 ft 54 kts 22°
2026-05-07 13:36 38.78302 -9.13452 356 ft 38 kts 47°
2026-05-07 13:36 38.78366 -9.13276 351 ft 14 kts 132°
2026-05-07 13:36 38.78273 -9.13287 349 ft 14 kts 202°
2026-05-07 13:37 38.78185 -9.13334 349 ft 13 kts 203°
2026-05-07 13:37 38.78101 -9.13380 348 ft 13 kts 204°
2026-05-07 13:37 38.78007 -9.13433 345 ft 15 kts 203°
2026-05-07 13:37 38.77916 -9.13480 346 ft 12 kts 202°
2026-05-07 13:38 38.77843 -9.13511 348 ft 10 kts 182°
2026-05-07 13:38 38.77771 -9.13497 346 ft 11 kts 169°
2026-05-07 13:38 38.77672 -9.13471 339 ft 18 kts 168°
2026-05-07 13:38 38.77536 -9.13436 331 ft 21 kts 168°
2026-05-07 13:39 38.77374 -9.13388 320 ft 26 kts 166°
2026-05-07 13:39 38.77198 -9.13343 322 ft 24 kts 169°
2026-05-07 13:39 38.77050 -9.13305 330 ft 19 kts 168°
2026-05-07 13:39 38.76918 -9.13270 332 ft 19 kts 168°
2026-05-07 13:40 38.76798 -9.13237 332 ft 11 kts 173°
2026-05-07 13:40 38.76757 -9.13309 332 ft 12 kts 259°
2026-05-07 13:40 38.76725 -9.13401 336 ft 11 kts 215°
2026-05-07 13:40 38.76663 -9.13461 340 ft 11 kts 236°
2026-05-07 13:41 38.76646 -9.13552 343 ft 10 kts 258°
2026-05-07 13:41 38.76631 -9.13638 344 ft 11 kts 252°
2026-05-07 13:41 38.76572 -9.13664 345 ft 8 kts 172°
2026-05-07 13:41 38.76527 -9.13653 346 ft 5 kts 168°
2026-05-07 13:42 38.76501 -9.13646 347 ft 2 kts 168°
2026-05-07 13:42 38.76483 -9.13641 348 ft 1 kts 168°
2026-05-07 13:42 38.76478 -9.13640 348 ft 0 kts 168°